Regional Weather Roundup
Issued by NWS Green Bay, WI

Home | Current Version | Previous Version | Graphics & Text | Print | Product List | Glossary Off
Versions: 1 2 3 4 5 6 7 8 9 10 11 12 13 14 15 16 17 18 19 20 21 22 23 24 25 26 27 28 29 30 31 32 33 34 35 36 37 38 39 40 41 42 43 44 45 46 47 48 49 50

000
ASUS43 KGRB 040759
RWRGRB

NORTH-CENTRAL AND NORTHEAST WISCONSIN REGIONAL WEATHER ROUNDUP
NATIONAL WEATHER SERVICE GREEN BAY WI
300 AM CDT MON MAY 04 2015

WIZ005-009-010>012-018-019-040900-
NORTH CENTRAL WISCONSIN

CITY           SKY/WX    TMP DP  RH WIND       PRES   REMARKS
IRONWOOD       MOCLDY    50  41  71 NW8       29.95R
MANITOWISH WTR NOT AVBL
ARBOR VITAE    NOT AVBL
EAGLE RIVER    NOT AVBL
LAND O LAKES   NOT AVBL
RHINELANDER    CLOUDY    50  47  89 CALM      29.93S
PHILLIPS       NOT AVBL
ANTIGO         NOT AVBL
TOMAHAWK       NOT AVBL
MERRILL        NOT AVBL
$$

WIZ013-073-040900-
NORTHEAST WISCONSIN

CITY           SKY/WX    TMP DP  RH WIND       PRES   REMARKS
IRON MOUNTAIN  CLOUDY    53  50  89 N5        29.87S
MARINETTE      CLOUDY    57  54  88 S10       29.85S
$$

WIZ017-030-035>037-045-040900-
CENTRAL WISCONSIN

CITY           SKY/WX    TMP DP  RH WIND       PRES   REMARKS
MEDFORD        NOT AVBL
WAUSAU         CLOUDY    55  53  93 NW8       29.89R
MOSINEE        NOT AVBL
MARSHFIELD     CLOUDY    56  56 100 NW9       29.92R
WISC RAPIDS    CLOUDY    56  54  93 CALM      29.92R FOG
STEVENS POINT  NOT AVBL
WAUPACA        NOT AVBL
SHAWANO        NOT AVBL
CLINTONVILLE   NOT AVBL
$$

WIZ038-039-048-051-040900-
FOX VALLEY

CITY           SKY/WX    TMP DP  RH WIND       PRES   REMARKS
NWS GREEN BAY  CLOUDY    60  57  89 NE3       29.85F
APPLETON       NOT AVBL
OSHKOSH        LGT RAIN  59  56  89 S7        29.86F
FOND DU LAC    LGT RAIN  59  57  93 S7        29.89S
$$

WIZ022-050-052-040900-
EAST CENTRAL WISCONSIN

CITY           SKY/WX    TMP DP  RH WIND       PRES   REMARKS
STURGEON BAY   CLOUDY    57  54  88 SE8       29.89F
MANITOWOC      NOT AVBL
SHEBOYGAN      LGT RAIN  57  55  93 CALM      29.90R
$$

LMZ563-521-522-541>543-040900-
LAKESHORE

STATION/POSITION TIME  TEMP    WIND        PRES    VSBY  WAVE
                       AIR SEA DIR/SP/G                  HT/PER
                 (UTC) (F)     (DEG/KT/KT) (MB)    (MI)  (FT/S)
SHEBOYGAN LKSHOR 0700   53      10/  6/  6 1012.5F
KEWAUNEE LKSHORE 0700   57     170/  8/ 11 1012.5
NORTHPORT PIER   0700   55     220/  4/  6 1011.5S
SISTER BAY LKSHO 0700   56        CALM       N/A
CHAMBERS ISLAND  0700   55     150/  3/  6 1011.5F
MENOMINEE LKSHOR 0700   57     150/  7/  9 1011.6
$$


USA.gov is the U.S. government's official web portal to all federal, state and local government web resources and services.